Regional Weather Roundup
Issued by NWS Cleveland, OH

Home | Current Version | Previous Version | Graphics & Text | Print | Product List | Glossary On
Versions: 1 2 3 4 5 6 7 8 9 10 11 12 13 14 15 16 17 18 19 20 21 22 23 24 25 26 27 28 29 30 31 32 33 34 35 36 37 38 39 40 41 42 43 44 45 46 47 48 49 50
000
ASUS41 KCLE 251613
RWRCLE
OHIO REGIONAL WEATHER ROUNDUP
NATIONAL WEATHER SERVICE WILMINGTON, OH
1200 PM EDT WED APR 25 2018

NOTE: "FAIR" INDICATES FEW OR NO CLOUDS BELOW 12,000 FEET WITH NO
SIGNIFICANT WEATHER AND/OR OBSTRUCTIONS TO VISIBILITY.

OHZ001>008-015>018-024>027-034-035-043-044-251700-
   NORTHWEST OHIO

CITY           SKY/WX    TMP DP  RH WIND       PRES   REMARKS
DEFIANCE       CLOUDY    54  48  80 MISG      29.97F
FINDLAY        CLOUDY    55  48  77 N15       29.94R
TOLEDO EXPRESS CLOUDY    54  49  83 N12       29.95S
TOLEDO EXEC    CLOUDY    54  47  77 N10       29.96R
LIMA           CLOUDY    54  50  86 N14       29.95S
$$

OHZ009>014-019>023-028>033-038-089-251700-
   NORTHEAST OHIO

CITY           SKY/WX    TMP DP  RH WIND       PRES   REMARKS
CLE-HOPKINS    FOG       50  49  96 NW14      29.92S VSB 1/2
CLE-LAKEFRONT  LGT RAIN  44  43  96 W3        29.89S VSB 1/2
CUY CO. ARPT   FOG       48  46  93 NW12      29.89S VSB 1/2
LORAIN-ELYRIA  LGT RAIN  47  42  83 N16       29.91S
ASHTABULA      LGT RAIN  52  51  97 NW8       29.86S FOG
AKRON-CANTON   LGT RAIN  54  50  86 N12       29.86S FOG
WOOSTER        CLOUDY    54  51  90 N17       29.88S
MANSFIELD      NOT AVBL
YOUNGSTOWN     CLOUDY    53  50  89 NW7       29.85S
$$

OHZ042-051>053-060>062-070>072-077>081-251700-
  SOUTHWEST OHIO

CITY           SKY/WX    TMP DP  RH WIND       PRES   REMARKS
CINC-COVINGTON NOT AVBL
CINC-LUNKEN    CLOUDY    57  53  86 N12       29.97S
HAMILTON       CLOUDY    58  52  80 N10       29.97S
DAYTON         CLOUDY    54  53  97 N13       29.96S
WRIGHT-PAT AFB CLOUDY    55  51  89 NW10      29.94S
DAYTON GENERAL CLOUDY    56  51  84 N14       29.94S
WILMINGTON     CLOUDY    56  53  90 NW13      29.94S
$$

OHZ036-037-039>041-045>050-054>059-063>069-073>076-082>088-251700-
  CENTRAL AND SOUTHEAST OHIO

CITY           SKY/WX    TMP DP  RH WIND       PRES   REMARKS
COLUMBUS       CLOUDY    55  50  83 NW14      29.91R
OSU AIRPORT    CLOUDY    53  50  89 NW12      29.92R
BOLTON FIELD   CLOUDY    55  52  88 N13       29.92S
RICKENBACK AFB CLOUDY    54  52  90 N12       29.91R
NEWARK         CLOUDY    56  51  84 NW7       29.88F
MARION         CLOUDY    53  49  86 N12       29.93R
LANCASTER      CLOUDY    54  51  90 NW10      29.91R
ZANESVILLE     CLOUDY    57  50  77 N10       29.88R
NEW PHILLY     CLOUDY    56  50  80 N10       29.87R
$$



USA.gov is the U.S. government's official web portal to all federal, state and local government web resources and services.